This is the latest recevied weather packets stored in our database for station/object KB3UMW-13. If no packets are shown the sender has not sent any weather packets the latest 10 day(s).
| Time | Temp. | Humidity | Pressure | Rain* | Wind** | Luminosity | Snow |
|---|---|---|---|---|---|---|---|
| 1777411444 | 16.11° C | 90% | 1015.8 hPa | 0 mm | - | 117 W/m² | - |
| 1777411139 | 16.11° C | 90% | 1015.9 hPa | 0 mm | - | 168 W/m² | - |
| 1777410838 | 16.11° C | 90% | 1015.6 hPa | 0 mm | - | 129 W/m² | - |
| 1777410532 | 16.11° C | 90% | 1015.7 hPa | 0 mm | - | 193 W/m² | - |
| 1777410231 | 16.67° C | 91% | 1015.7 hPa | 0 mm | - | 92 W/m² | - |
| 1777409927 | 16.67° C | 92% | 1015.7 hPa | 0 mm | - | 163 W/m² | - |
| 1777409622 | 16.11° C | 92% | 1015.9 hPa | 0 mm | - | 307 W/m² | - |
| 1777409318 | 16.11° C | 93% | 1015.8 hPa | 0 mm | - | 240 W/m² | - |
| 1777409014 | 16.11° C | 94% | 1015.8 hPa | 0 mm | - | 201 W/m² | - |
| 1777408711 | 16.11° C | 93% | 1015.9 hPa | 0 mm | - | 150 W/m² | - |
| 1777408407 | 16.11° C | 95% | 1015.7 hPa | 0 mm | - | 272 W/m² | - |
| 1777408107 | 16.11° C | 95% | 1015.8 hPa | 0 mm | - | 163 W/m² | - |
| 1777407802 | 16.11° C | 96% | 1016.3 hPa | 0 mm | - | 222 W/m² | - |
| 1777407499 | 15.56° C | 98% | 1016.3 hPa | 0 mm | - | 201 W/m² | - |
| 1777407193 | 15° C | 97% | 1016.5 hPa | 0.51 mm | - | 169 W/m² | - |
| 1777406889 | 15° C | 97% | 1016.3 hPa | 0.51 mm | - | 49 W/m² | - |
| 1777406584 | 15.56° C | 97% | 1016.3 hPa | 0 mm | - | 82 W/m² | - |
| 1777406280 | 15.56° C | 98% | 1016.3 hPa | 0.51 mm | - | 219 W/m² | - |
| 1777405979 | 15.56° C | 97% | 1016.3 hPa | 1.27 mm | - | 164 W/m² | - |
| 1777405675 | 15.56° C | 95% | 1016.4 hPa | 0 mm | - | 165 W/m² | - |
| 1777405373 | 16.11° C | 93% | 1016.4 hPa | 0 mm | - | 149 W/m² | - |
| 1777405068 | 16.11° C | 92% | 1016.1 hPa | 0 mm | - | 177 W/m² | - |
| 1777404763 | 16.67° C | 90% | 1016.1 hPa | 0 mm | - | 117 W/m² | - |
| 1777404460 | 16.67° C | 89% | 1016.1 hPa | 0 mm | - | 243 W/m² | - |
| 1777404156 | 16.67° C | 90% | 1016.3 hPa | 0 mm | - | 206 W/m² | - |
* Rain latest hour (hover to see other rain measurements)
** Current wind speed in m/s (hover to see current wind gust speed)